QFA615 YBBN-YSSY

Flight info

Callsign QFA615
Flight time 1h 15m
Altitude 32000
Route YBBN/19L N0462F320 SANEG2 SANEG H91 IGDAM H652 BOREE BORE4A YSSY/34L
Aircraft A320/M-SDE3FGHIRWY/LB1

Departure

Time 2026-05-04 08:00
Airport Brisbane International Airport (YBBN)

Arrival

Time 2026-05-04 09:15
Airport Sydney Kingsford Smith International Airport (YSSY)
Time Latitude Longitude Altitude Speed Heading
2026-05-04 07:33 -27.38478 153.12144 18 ft 0 kts 299°
2026-05-04 07:52 -27.38487 153.12163 19 ft 4 kts 300°
2026-05-04 07:52 -27.38502 153.12188 20 ft 4 kts 316°
2026-05-04 07:52 -27.38519 153.12199 19 ft 3 kts 28°
2026-05-04 07:53 -27.38523 153.12197 20 ft 0 kts 38°
2026-05-04 07:55 -27.38521 153.12199 20 ft 3 kts 38°
2026-05-04 07:55 -27.38485 153.12232 18 ft 11 kts 39°
2026-05-04 07:55 -27.38409 153.12304 18 ft 16 kts 41°
2026-05-04 07:56 -27.38341 153.12377 18 ft 13 kts 59°
2026-05-04 07:56 -27.38296 153.12467 18 ft 14 kts 85°
2026-05-04 07:56 -27.38304 153.12576 18 ft 15 kts 63°
2026-05-04 07:56 -27.38210 153.12641 18 ft 17 kts 27°
2026-05-04 07:57 -27.38098 153.12706 19 ft 19 kts 27°
2026-05-04 07:57 -27.37973 153.12778 18 ft 21 kts 26°
2026-05-04 07:57 -27.37835 153.12855 18 ft 23 kts 27°
2026-05-04 07:57 -27.37687 153.12940 17 ft 25 kts 26°
2026-05-04 07:58 -27.37528 153.13031 17 ft 27 kts 28°
2026-05-04 07:58 -27.37370 153.13121 17 ft 20 kts 26°
2026-05-04 07:58 -27.37272 153.13187 17 ft 14 kts 56°
2026-05-04 07:58 -27.37302 153.13299 18 ft 18 kts 117°
2026-05-04 07:59 -27.37377 153.13415 19 ft 19 kts 150°
2026-05-04 07:59 -27.37541 153.13390 19 ft 46 kts 205°
2026-05-04 07:59 -27.38034 153.13109 19 ft 109 kts 207°
2026-05-04 07:59 -27.38843 153.12644 18 ft 155 kts 207°
2026-05-04 08:00 -27.39867 153.12044 322 ft 167 kts 207°
2026-05-04 08:00 -27.40903 153.11428 874 ft 168 kts 205°
2026-05-04 08:00 -27.41955 153.10853 1425 ft 168 kts 196°
2026-05-04 08:02 -27.50771 153.14682 4773 ft 249 kts 184°
2026-05-04 08:02 -27.52548 153.14289 5196 ft 269 kts 192°
2026-05-04 08:02 -27.54399 153.13812 5943 ft 275 kts 192°
2026-05-04 08:03 -27.56265 153.13249 6736 ft 280 kts 199°
2026-05-04 08:03 -27.58112 153.12509 7512 ft 283 kts 199°
2026-05-04 08:03 -27.59983 153.11769 8271 ft 287 kts 200°
2026-05-04 08:03 -27.61888 153.11026 9036 ft 291 kts 199°
2026-05-04 08:04 -27.63830 153.10329 9805 ft 295 kts 198°
2026-05-04 08:04 -27.65816 153.09666 10441 ft 303 kts 197°
2026-05-04 08:04 -27.67922 153.08980 10619 ft 326 kts 197°
2026-05-04 08:04 -27.70177 153.08247 10745 ft 349 kts 197°
2026-05-04 08:05 -27.72556 153.07467 11148 ft 360 kts 197°
2026-05-04 08:05 -27.74945 153.06678 11722 ft 365 kts 198°
2026-05-04 08:05 -27.77393 153.05863 12320 ft 369 kts 198°
2026-05-04 08:05 -27.79871 153.05035 12911 ft 373 kts 198°
2026-05-04 08:06 -27.82370 153.04180 13495 ft 377 kts 200°
2026-05-04 08:06 -27.84854 153.03201 14045 ft 380 kts 203°
2026-05-04 08:06 -27.87333 153.02123 14552 ft 383 kts 204°
2026-05-04 08:06 -27.89810 153.00995 15083 ft 385 kts 205°
2026-05-04 08:08 -28.07727 152.93024 18781 ft 405 kts 205°
2026-05-04 08:08 -28.10368 152.91870 19278 ft 408 kts 205°
2026-05-04 08:10 -28.31990 152.82249 23076 ft 428 kts 207°
2026-05-04 08:11 -28.34764 152.81009 23488 ft 431 kts 207°
2026-05-04 08:11 -28.40373 152.78500 24173 ft 435 kts 207°
2026-05-04 08:11 -28.43199 152.77238 24510 ft 437 kts 207°
2026-05-04 08:12 -28.46032 152.75974 24885 ft 438 kts 208°
2026-05-04 08:12 -28.48873 152.74705 25257 ft 439 kts 208°
2026-05-04 08:12 -28.51722 152.73427 25596 ft 441 kts 208°
2026-05-04 08:12 -28.54577 152.72143 25923 ft 443 kts 208°
2026-05-04 08:13 -28.57445 152.70858 26279 ft 444 kts 208°
2026-05-04 08:13 -28.60326 152.69570 26650 ft 446 kts 208°
2026-05-04 08:13 -28.63222 152.68275 26998 ft 447 kts 208°
2026-05-04 08:13 -28.66122 152.66974 27331 ft 449 kts 209°
2026-05-04 08:14 -28.69035 152.65665 27668 ft 451 kts 209°
2026-05-04 08:14 -28.71952 152.64353 28010 ft 452 kts 209°
2026-05-04 08:14 -28.74876 152.63039 28444 ft 451 kts 209°
2026-05-04 08:16 -28.94323 152.52937 31687 ft 429 kts 217°
2026-05-04 08:16 -28.96966 152.51365 32029 ft 428 kts 218°
2026-05-04 08:16 -28.99605 152.49795 32123 ft 430 kts 218°
2026-05-04 08:17 -29.04946 152.46598 32129 ft 435 kts 217°
2026-05-04 08:17 -29.10326 152.43391 32132 ft 436 kts 218°
2026-05-04 08:19 -29.31839 152.30526 32165 ft 436 kts 218°
2026-05-04 08:20 -29.37222 152.27306 32164 ft 436 kts 218°
2026-05-04 08:20 -29.42603 152.24071 32155 ft 436 kts 218°
2026-05-04 08:21 -29.47930 152.20855 32150 ft 436 kts 218°
2026-05-04 08:21 -29.53308 152.17620 32164 ft 436 kts 218°
2026-05-04 08:22 -29.58678 152.14387 32156 ft 436 kts 218°
2026-05-04 08:24 -29.78623 152.05236 32164 ft 457 kts 203°
2026-05-04 08:24 -29.81726 152.04437 32147 ft 457 kts 203°
2026-05-04 08:24 -29.87937 152.02825 32150 ft 457 kts 203°
2026-05-04 08:25 -29.94146 152.01204 32143 ft 458 kts 203°
2026-05-04 08:25 -30.00316 151.99595 32161 ft 458 kts 203°
2026-05-04 08:27 -30.25194 151.93055 32160 ft 458 kts 203°
2026-05-04 08:28 -30.31410 151.91403 32144 ft 456 kts 206°
2026-05-04 08:28 -30.34369 151.90234 32142 ft 445 kts 212°
2026-05-04 08:28 -30.37240 151.88901 32139 ft 445 kts 212°
2026-05-04 08:29 -30.42980 151.86217 32135 ft 445 kts 212°
2026-05-04 08:31 -30.65958 151.75502 32121 ft 446 kts 213°
2026-05-04 08:33 -30.89021 151.64699 32125 ft 447 kts 213°
2026-05-04 08:35 -31.12154 151.53795 32150 ft 449 kts 213°
2026-05-04 08:35 -31.17943 151.51051 32134 ft 449 kts 213°
2026-05-04 08:37 -31.38190 151.41454 32127 ft 450 kts 213°
2026-05-04 08:38 -31.44032 151.38766 32118 ft 452 kts 212°
2026-05-04 08:38 -31.49921 151.36176 32113 ft 452 kts 212°
2026-05-04 08:40 -31.73353 151.25710 32111 ft 449 kts 213°
2026-05-04 08:41 -31.79196 151.23082 32129 ft 449 kts 212°
2026-05-04 08:41 -31.85026 151.20459 32112 ft 448 kts 212°
2026-05-04 08:42 -31.90820 151.17855 32113 ft 449 kts 212°
2026-05-04 08:42 -31.96654 151.15221 32105 ft 449 kts 212°
2026-05-04 08:43 -32.02499 151.12592 32116 ft 450 kts 212°
2026-05-04 08:43 -32.05431 151.11271 31930 ft 451 kts 212°
2026-05-04 08:43 -32.08364 151.09955 31414 ft 452 kts 212°
2026-05-04 08:43 -32.11317 151.08629 30440 ft 458 kts 211°
2026-05-04 08:44 -32.14325 151.07275 29303 ft 465 kts 210°
2026-05-04 08:44 -32.17351 151.05922 28633 ft 462 kts 210°
2026-05-04 08:46 -32.37862 150.96691 24183 ft 442 kts 207°
2026-05-04 08:46 -32.40695 150.95411 23544 ft 440 kts 207°
2026-05-04 08:46 -32.43542 150.94120 22871 ft 437 kts 207°
2026-05-04 08:46 -32.46368 150.92860 22286 ft 433 kts 204°
2026-05-04 08:47 -32.49313 150.92015 21687 ft 437 kts 193°
2026-05-04 08:47 -32.52355 150.91810 21133 ft 440 kts 182°
2026-05-04 08:47 -32.55402 150.92222 20597 ft 441 kts 175°
2026-05-04 08:47 -32.58428 150.92775 20053 ft 439 kts 175°
2026-05-04 08:48 -32.61431 150.93314 19524 ft 434 kts 174°
2026-05-04 08:48 -32.64413 150.93843 19014 ft 432 kts 175°
2026-05-04 08:48 -32.67385 150.94363 18461 ft 431 kts 175°
2026-05-04 08:48 -32.70352 150.94879 17859 ft 430 kts 175°
2026-05-04 08:49 -32.73306 150.95397 17307 ft 427 kts 175°
2026-05-04 08:50 -32.90576 150.98480 13906 ft 410 kts 174°
2026-05-04 08:50 -32.93393 150.98985 13292 ft 408 kts 174°
2026-05-04 08:51 -32.96184 150.99484 12725 ft 403 kts 174°
2026-05-04 08:51 -32.98941 150.99978 12159 ft 399 kts 174°
2026-05-04 08:51 -33.01639 151.00457 11606 ft 395 kts 174°
2026-05-04 08:51 -33.04346 151.00937 11041 ft 392 kts 174°
2026-05-04 08:52 -33.07021 151.01411 10675 ft 383 kts 174°
2026-05-04 08:52 -33.09606 151.01873 10553 ft 367 kts 174°
2026-05-04 08:52 -33.12088 151.02323 10430 ft 354 kts 174°
2026-05-04 08:52 -33.14482 151.02757 10312 ft 342 kts 174°
2026-05-04 08:53 -33.16800 151.03174 10191 ft 332 kts 174°
2026-05-04 08:54 -33.31395 151.05867 9010 ft 313 kts 174°
2026-05-04 08:55 -33.33544 151.06282 9012 ft 313 kts 174°
2026-05-04 08:55 -33.35697 151.06700 9008 ft 313 kts 174°
2026-05-04 08:55 -33.37847 151.07114 9010 ft 313 kts 174°
2026-05-04 08:55 -33.40003 151.07524 9015 ft 313 kts 174°
2026-05-04 08:57 -33.55043 151.10429 8522 ft 310 kts 173°
2026-05-04 09:01 -33.84425 151.16590 7011 ft 308 kts 147°
2026-05-04 09:01 -33.85976 151.18341 7008 ft 307 kts 122°
2026-05-04 09:01 -33.86843 151.20651 7009 ft 301 kts 98°
2026-05-04 09:01 -33.87045 151.23128 7011 ft 298 kts 90°
2026-05-04 09:02 -33.87641 151.25528 7007 ft 306 kts 121°
2026-05-04 09:02 -33.89180 151.27271 7011 ft 308 kts 151°
2026-05-04 09:02 -33.91062 151.28509 7010 ft 308 kts 150°
2026-05-04 09:02 -33.92890 151.29859 7011 ft 310 kts 147°
2026-05-04 09:03 -33.94689 151.31296 7008 ft 310 kts 149°
2026-05-04 09:03 -33.96609 151.32447 6999 ft 309 kts 161°
2026-05-04 09:03 -33.98671 151.33132 6874 ft 306 kts 170°
2026-05-04 09:03 -34.00750 151.33692 6746 ft 305 kts 172°
2026-05-04 09:04 -34.02779 151.34228 6626 ft 302 kts 171°
2026-05-04 09:04 -34.04857 151.34764 6508 ft 302 kts 171°
2026-05-04 09:04 -34.06911 151.35294 6383 ft 302 kts 171°
2026-05-04 09:04 -34.08963 151.35829 6083 ft 300 kts 171°
2026-05-04 09:05 -34.10992 151.36362 5490 ft 298 kts 170°
2026-05-04 09:05 -34.13015 151.36897 4907 ft 297 kts 170°
2026-05-04 09:05 -34.15014 151.37426 4544 ft 286 kts 169°
2026-05-04 09:05 -34.16897 151.37915 4379 ft 269 kts 171°
2026-05-04 09:06 -34.18707 151.38377 3995 ft 263 kts 171°
2026-05-04 09:07 -34.24685 151.29891 1996 ft 221 kts 288°
2026-05-04 09:08 -34.24128 151.28203 2000 ft 214 kts 306°
2026-05-04 09:08 -34.23209 151.26887 1991 ft 196 kts 323°
2026-05-04 09:08 -34.22103 151.26030 1997 ft 185 kts 338°
2026-05-04 09:08 -34.20919 151.25593 2014 ft 177 kts 347°
2026-05-04 09:09 -34.19775 151.25295 2021 ft 160 kts 348°
2026-05-04 09:09 -34.18748 151.25026 1999 ft 145 kts 347°
2026-05-04 09:09 -34.17776 151.24773 1996 ft 141 kts 347°
2026-05-04 09:09 -34.16821 151.24523 1994 ft 140 kts 348°
2026-05-04 09:10 -34.15875 151.24277 2001 ft 140 kts 348°
2026-05-04 09:10 -34.14930 151.24030 2002 ft 138 kts 349°
2026-05-04 09:10 -34.13983 151.23783 2011 ft 138 kts 349°
2026-05-04 09:10 -34.13039 151.23537 2010 ft 140 kts 349°
2026-05-04 09:11 -34.12083 151.23288 2008 ft 140 kts 348°
2026-05-04 09:11 -34.11135 151.23040 2016 ft 143 kts 349°
2026-05-04 09:11 -34.10171 151.22789 2011 ft 140 kts 348°
2026-05-04 09:11 -34.09224 151.22542 2029 ft 139 kts 348°
2026-05-04 09:12 -34.08286 151.22297 2012 ft 138 kts 350°
2026-05-04 09:12 -34.07342 151.22053 1964 ft 139 kts 347°
2026-05-04 09:14 -34.00814 151.20354 797 ft 143 kts 351°
2026-05-04 09:14 -33.99870 151.20108 615 ft 138 kts 351°
2026-05-04 09:14 -33.98958 151.19871 440 ft 135 kts 354°
2026-05-04 09:14 -33.98026 151.19625 300 ft 137 kts 351°
2026-05-04 09:15 -33.97082 151.19376 100 ft 136 kts 354°
2026-05-04 09:15 -33.96191 151.19154 28 ft 116 kts 351°
2026-05-04 09:15 -33.95584 151.18999 25 ft 50 kts 342°
2026-05-04 09:15 -33.95398 151.18919 25 ft 19 kts 337°
2026-05-04 09:17 -33.95158 151.18188 30 ft 0 kts 259°
2026-05-04 09:21 -33.95161 151.18169 30 ft 8 kts 259°
2026-05-04 09:22 -33.95174 151.18077 30 ft 10 kts 263°
2026-05-04 09:22 -33.95177 151.17986 30 ft 12 kts 289°
2026-05-04 09:22 -33.95095 151.17942 30 ft 16 kts 348°
2026-05-04 09:22 -33.94969 151.17911 30 ft 20 kts 348°
2026-05-04 09:23 -33.94823 151.17873 30 ft 22 kts 347°
2026-05-04 09:23 -33.94670 151.17832 30 ft 20 kts 347°
2026-05-04 09:23 -33.94630 151.17822 30 ft 0 kts 348°
2026-05-04 09:25 -33.94462 151.17776 30 ft 25 kts 346°
2026-05-04 09:25 -33.94287 151.17724 30 ft 27 kts 346°
2026-05-04 09:26 -33.94102 151.17667 28 ft 28 kts 346°
2026-05-04 09:26 -33.93922 151.17618 29 ft 23 kts 348°
2026-05-04 09:26 -33.93781 151.17580 29 ft 20 kts 347°
2026-05-04 09:26 -33.93645 151.17545 29 ft 21 kts 348°
2026-05-04 09:27 -33.93509 151.17509 29 ft 19 kts 348°
2026-05-04 09:27 -33.93382 151.17503 30 ft 19 kts 352°
2026-05-04 09:27 -33.93245 151.17470 30 ft 21 kts 349°
2026-05-04 09:27 -33.93113 151.17436 30 ft 15 kts 347°
2026-05-04 09:28 -33.93032 151.17415 30 ft 10 kts 349°
2026-05-04 09:28 -33.92984 151.17449 30 ft 10 kts 81°
2026-05-04 09:28 -33.92997 151.17540 30 ft 12 kts 102°
2026-05-04 09:28 -33.93007 151.17599 30 ft 5 kts 101°
2026-05-04 09:29 -33.93024 151.17607 30 ft 5 kts 208°
2026-05-04 09:29 -33.93082 151.17571 30 ft 11 kts 198°
2026-05-04 09:29 -33.93165 151.17546 30 ft 12 kts 192°
2026-05-04 09:29 -33.93202 151.17566 30 ft 7 kts 100°
2026-05-04 09:30 -33.93199 151.17615 30 ft 0 kts 85°
2026-05-04 09:31 -33.93197 151.17636 30 ft 2 kts 84°
2026-05-04 09:31 -33.93197 151.17640 30 ft 0 kts 84°